Regional Weather Roundup
Issued by NWS Sterling, VA

Home | Current Version | Previous Version | Text Only | Print | Product List | Glossary On
Versions: 1 2 3 4 5 6 7 8 9 10 11 12 13 14 15 16 17 18 19 20 21 22 23 24 25 26 27 28 29 30 31 32 33 34 35 36 37 38 39 40 41 42 43 44 45 46 47 48 49 50
000
ASUS41 KLWX 271010
RWRLWX

REGIONAL WEATHER ROUNDUP
NATIONAL WEATHER SERVICE BALTIMORE MD/WASHINGTON DC
600 AM EDT WED MAY 27 2015

Note: "FAIR" indicates few or no clouds below 12,000 feet
with no significant weather and/or obstructions to visibility.
 TC=TEMPERATURE CELSIUS

 * =Non NWS site. Station does not report precipitation (e.g. rain,
    snow, etc.), thunder, or fog.

DCZ001-MDZ009-015-VAZ040>042-051-053>054-271100-
WASHINGTON METRO

CITY           SKY/WX    TMP DP  RH WIND       PRES   REMARKS
WASHINGTON NAT MOCLDY    76  69  79 S12       30.15R
DULLES         PTCLDY    71  67  87 S8        30.13S
ANDREWS AFB    CLOUDY    72  70  93 S8        30.15S
FT BELVOIR     CLOUDY    74  69  84 S6        30.15R
QUANTICO       CLOUDY    74  69  85 S9        30.16R
COLLEGE PARK*  PTCLDY    73  70  88 S6        30.14R
LEESBURG*      CLEAR     70  70 100 S6        30.14S
MANASSAS*      CLEAR     73  70  88 S8        30.14R
GAITHERSBURG*  CLEAR     72  66  83 S6        30.18R

$$

MDZ006>007-011-014-271100-
BALTIMORE METRO

CITY           SKY/WX    TMP DP  RH WIND       PRES   REMARKS
BWI AIRPORT    MOCLDY    72  68  87 S3        30.13F
MD SCIENCE CTR   N/A     72  68  87 MISG      30.15S
MARTIN STATE   MOCLDY    72  72 100 SE8       30.16S
ANNAPOLIS      CLOUDY    71  67  87 SE6       30.15R
FORT MEADE*    PTCLDY    66  64  94 S5        30.16S

$$

MDZ012-015-019>023-271100-
MARYLAND EASTERN SHORE

CITY           SKY/WX    TMP DP  RH WIND       PRES   REMARKS
OCEAN CITY     PTCLDY    66  63  90 S8        30.21S
SALISBURY      PTCLDY    70  67  90 S8        30.20S
BAY BRIDGE AP*   N/A    N/A N/A N/A S6        30.16R
CAMBRIDGE*     CLEAR     72  68  88 S6        30.18R
EASTON*        CLEAR     72  72 100 S6        30.21S

$$

MDZ017>025-271100-
SOUTHERN MARYLAND

CITY           SKY/WX    TMP DP  RH WIND       PRES   REMARKS
PATUXENT RIVER MOCLDY    71  67  87 S7        30.17R
ST INIGOES     CLEAR     72  67  84 S8        30.17R
LEONARDTOWN*   CLEAR     70  64  83 CALM      30.19

$$

MDZ003>005-271100-
NORTH CENTRAL MARYLAND

CITY           SKY/WX    TMP DP  RH WIND       PRES   REMARKS
FREDERICK*     CLEAR     68  68 100 CALM      30.15S
HAGERSTOWN APT PTCLDY    71  66  84 S7        30.12R
WESTMINSTER*   CLEAR     70  66  88 S6        30.15R

$$

MDZ501>502-271100-
WESTERN MARYLAND

CITY           SKY/WX    TMP DP  RH WIND       PRES   REMARKS
OAKLAND*       MOCLDY    61 N/A N/A SW7       30.19S
CUMBERLAND*    MOCLDY    63  63 100 N3        30.15S

$$

VAZ025>031-271100-
SHENANDOAH VALLEY

CITY           SKY/WX    TMP DP  RH WIND       PRES   REMARKS
WINCHESTER*    HAZE      64  61  88 CALM      30.13R VSB 1
FRONT ROYAL*   FAIR      64  64 100 CALM      30.12R
LURAY*         PTSUNNY   70  70 100 S5        30.14R
NEW MARKET*    PTSUNNY   68  65  92 W6        30.12R
STAUNTON*      MOCLDY    62  61  96 CALM      30.18R FOG
WAYNESBORO*    FAIR      65  64  97 CALM      30.16R

$$

WVZ021-048>050-054>055-271100-
EASTERN WEST VIRGINIA PANHANDLE

CITY           SKY/WX    TMP DP  RH WIND       PRES   REMARKS
MARTINSBURG    FOG       66  64  93 CALM      30.12S VSB 1
PETERSBURG*    PTCLDY    63  59  89 CALM      30.14R

$$

VAZ036>039-050-271100-
CENTRAL FOOTHILLS

CITY           SKY/WX    TMP DP  RH WIND       PRES   REMARKS
CHARLOTTESVILL MOCLDY    71  68  90 S8        30.15R
CULPEPER*      CLOUDY    71  68  90 S5        30.15R
ORANGE*        CLOUDY    72  70  94 SE7       30.16S
GORDONSVILLE*  CLOUDY    71  68  92 S6        30.15R
WARRENTON*     FAIR      73  70  92 S5        30.14R

$$

VAZ055>057-271100-
NORTH AND CENTRAL PIEDMONT

CITY           SKY/WX    TMP DP  RH WIND       PRES   REMARKS
FREDERICKSBRG* MOCLDY    73  71  93 S5        30.15R
STAFFORD*      CLOUDY    72  67  84 S6        30.19R

$$

NCZ024-NYZ072-PAZ021-071-VAZ022-071-271100-
OTHER REGIONAL OBSERVATIONS

CITY           SKY/WX    TMP DP  RH WIND       PRES   REMARKS
NEW YORK CITY  PTCLDY    71  63  75 SW8       30.19R
PHILADELPHIA   CLOUDY    72  66  81 S8        30.17R
PITTSBURGH     CLOUDY    66  63  90 S6        30.10R
ROANOKE        PTCLDY    67  64  90 N3        30.19R
RICHMOND       MOCLDY    72  68  87 S8        30.18R
RALEIGH        MOCLDY    71  68  90 S5        30.21R

$$

ANZ530>537-271100-
MARINE OBSERVATIONS

STATION/POSITION TIME  TEMP    WIND        PRES
                       AIR SEA DIR/SP/G
                 (UTC) (F)     (DEG/KT/KT) (MB)
THOMAS PT LIGHT  1000   70 68  170/ 13/ 13 1021.7R
BALT KEY BRIDGE  0900   71     180/  7/ 10 1020.5R
COVE POINT       0900   72     210/ 10/ 12 1022.0S
LEWISETTA        0900   73 73              1021.2F
SOLOMONS ISLAND  0900      70                N/A
PINEY POINT      0900          210/ 10/ 12   N/A

$$



USA.gov is the U.S. government's official web portal to all federal, state and local government web resources and services.